Regional Weather Roundup
Issued by NWS

Home | Current Version | Previous Version | Text Only | Print | Product List | Glossary Off
Versions: 1 2 3 4 5 6 7 8 9 10 11 12 13 14 15 16 17 18 19 20 21 22 23 24 25 26 27 28 29 30 31 32 33 34 35 36 37 38 39 40 41 42 43 44 45 46 47 48 49 50

000
ASUS43 KDMX 242004
RWRIA

WEATHER ROUNDUP FOR IOWA
NATIONAL WEATHER SERVICE DES MOINES IA
  ISSUED BY NWS QUAD CITIES IA IL
200 PM CST SAT JAN 24 2015

NOTE: "FAIR" INDICATES FEW OR NO CLOUDS BELOW 12,000 FEET WITH NO
SIGNIFICANT WEATHER AND/OR OBSTRUCTIONS TO VISIBILITY.

* - THESE STATIONS ARE NOT NWS STATIONS...THUS NOT UNDER NWS
QUALITY CONTROL.  THEY ALSO DO NOT REPORT WEATHER SUCH
AS PRECIPITATION OR FOG.

IAZ001>003-012>014-020>022-031>034-043>046-242100-
   NORTHWEST IOWA

CITY           SKY/WX    TMP DP  RH WIND       PRES   REMARKS
CARROLL *      PTSUNNY   48  32  53 W14G21    29.66F
CHEROKEE *     CLOUDY    44  33  66 W10       29.66F WCI  38
DENNISON *     CLOUDY    48  32  53 SW15      29.65F
LE MARS *      CLOUDY    46  32  57 W6        29.66F
ORANGE CITY *  CLOUDY    43  34  70 W12       29.64F WCI  37
SHELDON *      CLOUDY    39  36  87 W12       29.62F WCI  32
SIOUX CITY     CLOUDY    50  32  50 W13       29.66F
SPENCER        CLOUDY    41  32  70 W15       29.63F WCI  33
STORM LAKE *   PTSUNNY   43  34  70 W14G21    29.65F WCI  36
$$

IAZ055>058-069>071-079>083-090>094-242100-
   SOUTHWEST IOWA

CITY           SKY/WX    TMP DP  RH WIND       PRES   REMARKS
ATLANTIC *     PTSUNNY   50  30  46 SW17      29.69F
AUDUBON *      PTSUNNY   52  30  43 SW14      29.69F
CLARINDA *     PTSUNNY   54  30  40 SW8       29.75F
COUNCIL BLFS * CLOUDY    48  32  53 W10       29.70F
CRESTON *      SUNNY     54  30  40 W17G25    29.71F
HARLAN *       CLOUDY    50  32  50 SW16      29.72F
LAMONI         SUNNY     54  30  40 W16       29.72F
RED OAK *      PTSUNNY   52  30  43 SW15      29.72F
SHENANDOAH *   CLOUDY    52  32  46 SW13      29.74F
$$

IAZ047>049-059>061-072>074-084-242100-
   CENTRAL IOWA

CITY           SKY/WX    TMP DP  RH WIND       PRES   REMARKS
AMES           MOSUNNY   49  34  56 W14       29.66F
ANKENY *       MOSUNNY   50  32  50 W13       29.67F
BOONE *        MOSUNNY   48  36  61 W12       29.65F
CHARITON *     MOSUNNY   52  32  46 W14G21    29.70F
DES MOINES     PTSUNNY   53  32  44 W13       29.68F
GRINNELL *     CLEAR     48  34  57 W14       29.67F
KNOXVILLE *    MOSUNNY   52  32  46 W17       29.67F
MARSHALLTOWN   SUNNY     47  35  63 W13       29.65F
NEWTON *       SUNNY     48  34  57 W15       29.67F
PELLA *        SUNNY     52  33  49 W9        29.69F
PERRY *          N/A     52  33  48 W16G23    29.67F
$$

IAZ004>006-015-016-023>025-035-036-242100-
   NORTH CENTRAL IOWA

CITY           SKY/WX    TMP DP  RH WIND       PRES   REMARKS
ALGONA *       MOSUNNY   41  36  81 SW10      29.62F WCI  35
CLARION *      SUNNY     41  39  93 W13       29.64F WCI  34
ESTHERVILLE    PTSUNNY   38  34  85 SW13      29.61F WCI  30
FORT DODGE *   MOSUNNY   45  36  70 SW9       29.66F WCI  40
MASON CITY     SUNNY     42  35  76 W10       29.63F WCI  36
FOREST CITY *  FAIR      41  34  75 W7        29.62F WCI  36
WEBSTER CITY * MOSUNNY   43  37  81 W12       29.64F WCI  37
IOWA FALLS *   FAIR      46  36  69 W15       29.66F
$$

IAZ007>011-017>019-026>030-037>042-050>054-066-242100-
   NORTHEAST IOWA

CITY           SKY/WX    TMP DP  RH WIND       PRES   REMARKS
CEDAR RAPIDS   SUNNY     47  34  60 W13       29.65F
CHARLES CITY * SUNNY     43  37  81 W9        29.63F WCI  37
CLINTON *      SUNNY     45  36  70 W14       29.68F WCI  38
DECORAH *      SUNNY     41  36  81 W8        29.62F WCI  36
DUBUQUE        SUNNY     42  35  76 W8        29.64F WCI  37
MONTICELLO *   SUNNY     46  37  71 W12       29.65F
OELWEIN *      SUNNY     43  36  75 W10       29.64F WCI  37
WATERLOO       SUNNY     47  34  60 W10       29.64F
$$

IAZ064-065-067-068-078-242100-
   EAST CENTRAL IOWA

CITY           SKY/WX    TMP DP  RH WIND       PRES   REMARKS
DAVENPORT      SUNNY     45  34  65 W14       29.67F WCI  38
IOWA CITY      SUNNY     48  35  60 W10       29.69F
MT. PLEASANT * SUNNY     47  34  60 SW10      29.70F
MUSCATINE *    SUNNY     48  34  57 W10       29.69F
QUAD CITIES    SUNNY     47  35  63 W9        29.67F
$$

IAZ062-063-075>077-085>089-095>099-242100-
   SOUTHEAST IOWA

CITY           SKY/WX    TMP DP  RH WIND       PRES   REMARKS
BURLINGTON     SUNNY     47  36  65 SW12      29.70F
FAIRFIELD *    SUNNY     50  34  53 SW14      29.69F
FORT MADISON * SUNNY     50  37  62 W9        29.71F
OSKALOOSA *    FAIR      51  33  50 W15       29.68F
OTTUMWA        SUNNY     51  32  48 W16       29.68F
WASHINGTON *   SUNNY     48  36  61 W12       29.68F
$$

ABBREVIATIONS USED IN REMARKS
   TC - TEMPERATURES IN CELSIUS
  WCI - WIND CHILL INDEX
   HX - HEAT INDEX
  VSB - VISIBILITY
$$



USA.gov is the U.S. government's official web portal to all federal, state and local government web resources and services.